Flag for Germany Weather past 2 weeks in Dreieich, Hesse, Germany

Now
59 °F

Overcast.


Feels Like: 59 °F
Forecast: 59 / 74 °F
Wind: 2 mph from Northeast

Location: Frankfurt / M-Flughafen

Current Time: Sep 18, 2014 at 3:42:24 AM

Latest Report: Sep 18, 2014 at 3:00 AM


Visibility: 16 mi

Pressure: 29.88 "Hg

Humidity: 91%

Dew point: 56 °F

Location of DreieichLocation

Historic Weather in Dreieich — Graph

°F

Dreieich temperature yesterday

Maximum temperature yesterday: 76 °F (at 4:00 PM)
Minimum temperature yesterday: 56 °F (at 6:00 AM)
Average temperature yesterday: 65 °F

Past Weeks' High & Low Weather Summary

 TemperatureHumidityPressure
High79 °F (Sep 6, 4:00 PM)97% (Sep 6, 7:00 AM)30.20 "Hg (Sep 6, 7:00 AM)
Low47 °F (Sep 11, 4:00 AM)43% (Sep 9, 6:00 PM)29.85 "Hg (Sep 6, 6:00 PM)
Average63 °F77%30.03 "Hg
* Reported Sep 3 2:00 AM — Sep 18 2:00 AM, Dreieich, Weather by CustomWeather, © 2014

Note: Actual official high and low records may vary slightly from our data, if they occured in-between our weather recording intervals... More about our weather records

Advertising

Dreieich weather history for previous 24 hours

 ConditionsComfort  
Time TempWeatherWind HumidityBarometerVisibility
2:00 AM
Sep 18
60 °FOvercast.2 mph89%29.88 "Hg16 mi
1:00 AM61 °FOvercast.2 mph89%29.88 "Hg17 mi
12:00 AM62 °FPassing clouds.1 mph87%29.89 "Hg19 mi
10:00 PM
Sep 17
64 °FPassing clouds.2 mph85%29.88 "Hg28 mi
9:00 PM66 °FPassing clouds.2 mph79%29.88 "Hg28 mi
8:00 PM69 °FPassing clouds.1 mph69%29.88 "Hg25 mi
7:00 PM74 °FPartly sunny.1 mph57%29.87 "Hg25 mi
6:00 PM76 °FScattered clouds.2 mph51%29.86 "Hg25 mi
5:00 PM76 °FScattered clouds.3 mph48%29.86 "Hg25 mi
4:00 PM76 °FScattered clouds.2 mph46%29.87 "Hg25 mi
3:00 PM76 °FPassing clouds.2 mph52%29.89 "Hg22 mi
2:00 PM74 °FPassing clouds.2 mph57%29.90 "Hg16 mi
1:00 PM70 °FPassing clouds.3 mph67%29.92 "Hg12 mi
12:00 PM67 °FPassing clouds.3 mph73%29.93 "Hg11 mi
10:00 AM62 °FPassing clouds.3 mph87%29.94 "Hg11 mi
9:00 AM58 °FSunny.3 mph91%29.94 "Hg10 mi
8:00 AM56 °FPassing clouds.3 mph94%29.95 "Hg9 mi
7:00 AM56 °FClear.3 mph94%29.95 "Hg7 mi
6:00 AM56 °FClear.2 mph94%29.95 "Hg10 mi
4:00 AM58 °FPassing clouds.3 mph94%29.94 "Hg11 mi
3:00 AM58 °FClear.2 mph93%29.95 "Hg11 mi
Weather by CustomWeather, © 2014

See weather overviewHow to use our weather pages